Temperature
15 15 15 16 16 17 18 21 23 23 23 23 22 23 22 22 21 18 17 16 16 16 16 16 16 16 16 16 16 15 15 15 15 15 15 15 15 15 15 15 15 14 15 15 15 14 15 15 15
15 15 15 16 16 17 19 21 22 22 22 21 21 21 21 21 18 17 16 16 15 15 15 15 16 16 15 15 15 15 15 15 15 15 15 15 15 15 15 14 14 14 14 14 14 14 14 15 15
14 15 16 16 17 18 20 21 21 21 21 20 21 21 21 20 18 16 16 15 15 15 15 15 15 15 15 15 15 15 15 15 15 15 15 15 14 14 14 14 14 14 14 14 14 14 14 14 14
14 15 16 16 17 19 21 21 21 21 20 20 20 20 19 18 17 16 16 15 15 15 15 15 15 15 15 15 15 15 15 15 15 15 15 15 14 14 14 14 14 14 14 14 14 14 14 14 14
14 16 16 16 17 19 21 21 21 20 20 20 20 19 18 17 16 16 15 15 14 14 14 15 15 15 15 15 15 15 14 15 15 15 15 15 14 14 14 14 14 14 14 14 14 14 14 14 14
15 16 16 16 18 20 21 21 21 20 20 20 20 19 17 16 16 15 15 15 14 14 14 14 14 14 14 14 14 14 14 14 14 14 14 14 14 14 14 14 14 14 14 14 14 14 14 14 14
15 15 16 17 18 19 21 20 20 19 19 20 19 18 17 16 15 15 15 14 14 14 14 14 14 14 14 14 14 14 14 14 14 14 14 14 14 14 14 14 14 13 13 13 13 13 14 14 13
15 15 16 17 18 19 20 19 19 19 19 19 19 18 17 15 15 15 14 14 14 14 14 14 14 14 14 14 14 14 14 14 14 14 14 14 14 14 14 14 14 14 13 13 13 13 13 13 13
15 14 15 17 18 19 19 18 18 18 18 18 18 17 16 15 15 14 14 13 13 13 13 13 13 13 13 13 13 13 13 13 13 13 14 14 14 14 13 13 14 13 13 13 13 13 13 13 13
14 13 15 18 18 18 18 18 18 17 17 17 17 16 15 15 14 14 13 13 13 13 13 13 13 13 13 13 13 13 13 13 13 13 13 13 13 13 13 13 13 13 13 13 13 13 12 12 12
15 14 16 17 18 17 17 17 17 17 16 17 16 15 15 14 14 14 13 13 13 13 13 13 13 13 13 13 13 13 13 13 13 13 13 13 13 13 13 13 13 13 13 13 12 12 12 12 12
15 15 16 17 16 16 16 16 16 16 16 17 16 16 15 14 14 13 13 13 13 13 13 13 13 13 13 13 13 13 13 13 13 13 13 13 13 13 13 13 13 13 12 12 12 12 12 11 11
15 15 16 16 15 15 15 15 15 15 15 16 16 15 15 14 14 13 13 13 13 13 13 13 13 13 13 12 12 12 13 13 13 12 12 13 12 13 12 12 12 12 12 12 12 12 11 11 11
15 15 15 15 15 15 14 14 14 15 15 15 15 15 14 14 14 13 13 13 13 13 12 12 12 12 12 12 12 12 12 12 12 12 12 12 12 12 12 12 12 12 12 12 11 11 11 11 11
14 13 14 14 14 14 14 13 13 14 15 15 15 14 14 14 13 13 13 13 12 12 12 12 12 12 12 12 12 12 12 12 12 12 12 12 12 12 12 12 12 12 11 11 11 11 11 10 10
13 13 12 14 14 14 12 11 14 15 15 15 14 14 14 13 13 13 13 12 12 12 12 12 12 12 12 12 12 12 12 12 12 12 12 12 12 12 12 12 11 11 11 11 11 10 10 10 10
12 11 12 14 14 14 12 12 14 15 15 15 14 14 14 13 13 12 12 12 12 12 12 12 12 12 11 12 11 12 12 12 12 12 12 12 11 11 11 11 11 11 11 11 10 10 10 10 10
11 12 13 13 14 13 12 12 13 15 15 14 14 14 14 13 13 12 12 12 12 12 12 11 11 11 11 11 11 11 11 11 11 11 11 11 11 11 11 11 11 11 10 10 10 10 10 10 9
13 12 13 14 14 13 12 12 13 14 14 14 14 14 13 13 13 12 12 12 11 11 11 11 11 11 11 11 11 11 11 11 11 11 11 11 11 11 11 10 10 10 10 10 10 10 9 9 9
12 11 12 13 14 13 12 12 13 13 13 13 13 13 13 13 12 12 12 11 11 11 11 11 10 11 11 11 11 11 11 11 11 10 10 10 10 10 10 10 10 10 10 10 9 9 9 9 9
11 11 11 12 12 12 11 11 12 13 13 13 13 13 13 12 12 11 11 11 11 10 10 10 10 10 10 10 10 10 10 10 10 10 10 10 10 10 10 10 10 10 10 10 9 9 9 9 9
10 11 11 11 10 9 11 9 11 12 12 12 12 12 12 12 12 11 11 11 10 10 10 10 10 10 10 10 10 10 10 10 10 10 10 10 10 10 9 9 9 9 9 9 9 9 9 9 9
10 11 11 10 9 9 10 9 10 12 12 12 11 12 12 11 11 11 10 10 10 10 10 10 10 10 10 10 10 9 10 10 10 10 9 9 9 9 9 9 9 9 9 9 9 9 9 8 8
10 10 10 9 8 7 9 8 9 10 11 11 11 11 11 10 10 10 10 10 9 9 9 9 9 9 9 9 9 9 9 9 9 9 9 9 9 9 9 9 9 9 9 8 8 8 8 8 8
8 7 7 7 7 7 10 9 9 10 11 11 10 10 10 9 9 9 9 9 9 9 9 9 9 9 9 9 9 9 9 9 9 9 9 9 9 8 8 8 8 8 8 8 8 8 8 8 7
7 7 6 7 7 8 9 8 9 10 10 10 10 10 9 9 8 8 8 8 8 8 8 8 8 8 8 8 8 8 8 8 8 8 9 8 8 9 8 8 8 8 8 8 7 7 7 7 7
6 6 8 7 7 7 8 9 9 9 9 8 9 9 8 8 8 7 7 7 7 7 8 8 8 8 8 8 8 8 8 8 8 8 8 8 8 8 8 8 8 7 7 7 7 7 7 7 7
6 6 6 6 6 7 8 8 7 7 7 7 7 7 7 7 7 7 6 6 6 7 7 7 7 7 8 8 8 8 8 8 8 8 8 8 8 8 8 7 7 7 7 7 7 7 7 6 6
5 5 5 5 6 6 7 6 7 7 6 6 6 7 7 6 6 6 6 6 6 6 6 6 7 7 7 7 7 7 7 7 7 7 7 7 7 7 7 7 7 7 7 7 6 6 6 6 6
5 4 4 3 4 5 6 5 7 6 6 6 6 6 6 5 5 5 5 5 5 5 5 6 6 6 7 7 7 7 7 7 7 7 7 7 7 7 7 7 6 6 6 6 6 6 6 6 5
Wind_Speed
10 11 6 3 3 5 8 7 5 0 2 4 6 4 4 4 4 6 5 8 11 12 15 14 13 12 12 12 12 11 11 10 10 10 10 10 10 10 9 9 9 9 10 10 10 10 11 11 11
10 6 4 3 4 6 7 9 6 2 4 5 4 3 3 3 7 8 6 8 10 11 14 14 14 12 12 12 12 11 11 10 10 10 10 10 10 9 9 9 9 9 9 10 10 11 11 11 10
9 6 4 4 5 6 4 0 3 5 6 4 2 1 2 3 7 6 7 7 8 10 12 14 15 13 12 11 11 11 11 10 10 10 10 10 10 10 11 10 10 10 10 11 11 11 11 10 10
4 3 4 5 9 9 6 2 4 5 4 2 3 2 3 5 5 7 8 7 8 8 11 14 14 13 12 11 11 11 11 10 10 9 9 9 9 10 11 11 10 11 11 11 11 10 10 9 9
4 4 5 6 10 10 5 2 2 2 4 5 4 2 4 5 9 9 7 7 8 8 11 13 14 13 12 11 11 11 11 10 10 9 9 8 9 10 10 11 11 11 11 10 10 10 9 8 8
4 4 5 8 9 8 5 3 2 4 4 5 4 3 3 6 8 7 6 6 7 8 9 12 12 12 11 11 11 10 10 10 10 9 9 8 9 9 10 10 10 10 10 9 9 9 8 7 7
4 4 6 8 8 6 3 4 3 5 5 4 3 3 4 7 8 7 6 6 7 7 8 10 11 11 11 11 10 10 10 10 10 9 9 9 9 9 9 10 10 9 9 8 8 8 8 7 6
4 4 6 8 8 6 1 4 1 4 4 2 2 3 3 8 8 7 6 5 6 6 6 7 9 9 9 10 10 10 10 10 9 9 9 9 9 9 9 9 9 9 8 8 8 7 7 7 6
4 4 6 6 6 3 3 3 2 1 3 1 1 2 5 10 8 7 5 5 5 6 6 5 6 7 9 9 10 10 10 10 10 9 9 9 8 9 9 9 9 9 8 7 7 7 6 7 5
5 6 7 4 4 3 1 3 3 3 5 4 2 3 7 8 8 8 7 6 6 6 6 5 5 5 6 7 9 9 9 9 9 8 9 8 8 8 8 10 10 9 8 8 7 6 6 6 4
6 7 7 7 5 4 2 3 4 5 6 6 6 7 8 7 8 8 8 7 7 6 6 6 5 5 4 4 6 6 6 7 8 8 8 8 7 7 7 7 8 8 8 6 6 6 5 4 4
8 9 9 7 2 2 4 4 5 7 5 3 4 7 8 9 9 9 8 8 7 7 6 5 5 5 4 4 4 5 4 5 5 7 8 6 4 4 5 5 6 6 6 6 5 4 4 4 4
14 10 9 7 3 4 6 8 7 9 6 3 2 5 8 9 8 7 6 6 7 7 7 5 5 5 4 4 4 4 4 5 5 6 6 6 4 4 4 4 6 6 6 6 4 3 3 3 3
7 9 10 8 8 6 8 9 8 9 6 6 6 7 7 8 8 7 7 6 6 7 7 6 6 5 5 4 4 3 4 4 6 6 6 6 6 5 4 4 4 4 5 6 5 3 3 2 3
7 8 10 10 10 7 5 10 13 11 8 9 8 8 8 8 7 7 7 7 6 6 6 6 6 6 6 5 5 4 4 5 4 5 6 6 6 5 5 4 4 4 5 5 4 3 4 3 3
7 8 10 9 11 8 7 12 9 9 10 10 8 8 8 8 8 7 6 6 6 6 7 7 6 6 6 5 4 4 5 4 4 5 6 6 6 6 5 4 4 5 6 4 3 3 3 3 3
9 10 12 9 11 8 10 10 7 6 9 10 9 8 7 7 8 7 7 6 6 7 7 7 6 6 6 5 4 4 4 4 4 4 5 6 7 7 5 3 4 6 4 3 3 2 3 3 3
9 11 10 10 9 10 11 11 8 6 7 8 7 7 7 7 8 7 7 7 6 6 6 7 7 7 6 4 4 3 3 3 4 4 4 6 6 7 5 4 4 5 4 3 3 3 3 3 4
11 12 13 10 6 8 12 13 11 8 7 7 7 7 7 7 7 7 7 7 7 6 6 6 7 7 6 5 5 5 4 4 3 4 5 5 6 6 6 4 4 4 4 4 4 3 4 3 3
15 15 14 9 6 7 10 13 11 9 9 8 8 7 7 6 6 7 8 8 8 7 7 7 6 7 7 6 5 4 4 4 4 3 4 6 6 6 6 6 5 5 4 4 5 5 3 3 3
16 14 13 9 6 6 7 10 11 8 9 8 8 7 7 7 7 7 8 8 8 8 8 7 7 7 6 6 5 4 3 3 3 4 4 4 6 6 6 6 5 5 5 5 5 6 5 4 3
13 9 10 9 6 6 6 7 8 8 9 9 9 7 7 6 6 6 7 8 8 8 7 7 7 7 6 7 6 7 6 5 5 5 4 5 6 6 7 6 6 6 5 5 6 5 4 6 5
8 5 8 8 7 7 8 7 6 7 8 8 8 7 5 5 5 5 5 6 7 7 7 6 7 7 6 7 7 7 5 4 4 5 6 5 4 5 6 7 6 6 5 6 5 5 5 5 5
6 5 7 7 5 9 12 9 6 5 7 6 6 6 4 4 3 3 3 4 4 6 7 7 7 7 7 7 7 7 7 6 6 5 6 5 4 4 5 6 6 6 5 6 6 6 6 5 5
4 4 3 5 7 8 8 8 5 2 1 2 4 5 5 4 3 3 3 4 4 5 6 6 7 6 6 7 6 6 7 7 7 6 6 6 4 4 6 5 5 5 5 6 6 6 6 6 6
6 7 6 5 6 4 6 7 3 2 2 3 4 5 5 4 3 3 3 3 4 4 5 6 6 6 7 7 6 6 6 5 4 5 5 5 5 5 6 6 5 6 6 6 5 5 5 5 6
4 6 6 5 5 5 5 4 3 2 4 4 4 5 4 3 3 2 2 3 3 3 3 5 6 5 6 7 6 5 5 5 5 5 5 4 4 4 6 6 6 6 7 7 6 5 5 5 5
5 4 3 4 5 6 6 5 3 2 2 3 3 3 2 3 2 2 2 2 2 2 1 3 4 5 5 5 5 4 4 5 5 5 5 5 5 5 6 7 6 6 6 7 6 5 6 6 5
2 3 4 3 4 4 4 2 2 3 3 2 2 3 2 2 2 2 2 2 2 2 2 2 3 4 4 4 4 4 4 4 5 4 5 5 5 6 6 7 7 7 7 7 7 7 7 7 6
3 2 2 2 4 4 3 1 5 7 6 6 5 5 5 4 3 3 3 2 2 2 1 1 1 2 4 4 4 3 3 3 4 4 4 4 5 5 5 6 6 6 7 7 8 8 8 7 7
Wind_Direction
283 258 243 240 237 231 238 243 249 153 18 33 26 17 344 359 30 105 132 101 114 125 131 137 136 138 138 136 135 132 130 126 121 121 123 128 127 125 124 119 114 111 106 102 105 105 101 97 95
280 257 242 234 235 231 237 225 231 148 90 61 38 4 332 56 83 106 112 101 118 125 131 139 139 139 141 140 138 136 134 130 126 123 123 126 128 127 126 123 117 110 107 104 102 101 99 99 97
269 252 238 229 232 234 257 105 164 110 92 107 139 247 296 66 93 103 109 114 116 122 129 135 141 141 140 142 142 140 138 135 130 126 123 125 126 124 120 116 112 107 104 104 101 99 99 100 102
252 228 243 245 245 251 268 30 68 106 112 157 177 171 102 53 71 100 114 121 119 121 125 135 142 144 142 139 143 145 144 141 137 133 130 130 129 126 119 114 111 107 104 103 101 102 100 101 103
245 240 231 235 246 256 272 50 78 170 170 184 203 209 109 83 93 107 123 126 125 122 125 139 143 146 145 142 142 146 146 145 144 142 140 136 132 128 123 119 114 113 110 107 104 102 100 101 102
241 238 237 237 242 236 223 159 185 226 214 182 189 224 119 117 111 117 124 126 124 125 126 138 145 146 146 147 146 149 150 149 148 147 146 141 135 133 128 124 122 119 116 114 110 105 105 105 101
253 249 248 256 259 252 211 129 193 224 229 200 179 197 133 130 117 121 123 121 119 124 130 139 147 148 150 152 151 148 152 153 153 150 146 141 137 134 132 131 129 126 123 120 118 114 110 108 105
270 273 252 251 256 260 157 120 197 245 246 224 186 200 159 138 125 121 123 123 123 131 136 141 148 150 151 152 156 157 156 157 158 156 150 145 141 136 133 132 132 132 130 126 124 123 119 113 110
263 250 245 245 253 264 111 139 183 337 285 245 159 36 99 128 128 129 133 135 143 145 144 144 146 148 153 159 164 163 162 167 165 162 157 150 145 144 140 141 138 136 135 133 132 131 125 118 118
216 234 240 266 296 310 117 185 196 197 226 222 177 115 118 137 149 158 164 165 165 162 158 155 150 145 155 164 158 166 169 169 169 163 162 163 157 155 151 149 147 144 140 140 141 139 135 132 139
212 233 253 273 314 338 302 240 228 224 229 215 196 172 156 168 173 178 180 177 176 170 167 158 149 146 148 144 152 157 161 163 168 169 169 167 158 145 139 141 144 145 148 144 145 143 144 142 142
232 242 256 271 307 303 267 256 242 235 241 246 202 178 170 182 187 189 187 183 175 171 169 160 148 149 152 151 156 151 145 149 155 166 165 159 145 138 141 139 151 150 154 145 148 156 153 152 153
233 245 248 257 249 249 259 256 256 248 244 266 242 187 181 190 195 193 185 180 173 171 169 165 153 154 156 160 163 149 143 147 148 152 156 151 143 150 147 144 146 155 156 151 157 158 149 146 150
244 250 252 247 240 237 243 251 245 244 226 225 212 210 197 196 196 193 190 185 182 175 169 166 163 165 162 165 160 154 143 140 140 140 150 152 147 146 144 143 144 145 149 152 155 146 129 118 108
265 261 255 237 223 219 229 252 232 233 223 222 216 210 207 202 197 196 191 187 187 181 170 167 168 164 166 165 158 155 147 142 136 143 153 147 146 147 145 143 137 138 146 142 134 128 117 103 92
240 241 241 222 207 196 197 248 237 217 212 217 215 212 206 202 199 194 188 184 181 176 172 171 173 164 163 159 159 153 146 143 140 149 156 160 155 150 137 141 146 145 145 139 128 130 116 110 99
222 232 236 230 196 187 202 248 248 220 209 214 213 212 205 199 199 195 186 181 178 173 166 167 165 164 161 158 157 151 145 149 150 151 157 166 163 156 141 140 140 142 138 136 143 131 131 124 111
222 235 244 235 194 195 215 240 252 235 222 218 211 210 205 204 202 193 185 176 171 170 167 166 165 163 159 155 151 154 152 153 153 156 162 169 167 159 145 139 136 137 141 147 145 145 134 131 125
254 252 253 252 220 213 229 240 241 232 223 223 218 212 208 208 198 188 180 171 167 169 168 167 167 166 161 160 163 167 171 168 166 161 164 169 167 164 153 147 145 144 155 161 152 139 135 131 122
251 258 261 266 228 223 248 253 243 233 221 217 218 213 209 208 197 187 176 171 173 178 175 170 170 169 167 169 168 164 159 167 174 161 164 170 168 171 167 156 162 160 161 164 160 145 145 154 148
242 244 254 262 279 264 267 268 241 230 222 219 214 208 206 204 198 187 180 178 172 180 180 179 174 170 166 162 157 151 144 149 163 169 173 172 172 175 172 167 165 168 167 171 172 164 163 170 183
249 244 255 259 256 253 225 268 243 226 220 215 213 205 205 202 193 184 179 177 175 177 173 173 170 166 165 161 166 167 172 178 180 170 170 170 173 177 177 174 171 173 171 171 178 173 171 170 182
257 262 255 250 246 259 239 247 257 215 227 215 204 198 192 183 181 179 172 173 168 164 163 171 166 164 165 168 173 175 174 177 165 161 164 169 173 176 177 177 175 176 177 179 177 175 177 179 182
265 261 256 245 231 244 228 221 259 214 221 219 196 174 166 161 161 158 146 137 148 153 158 165 163 167 170 170 174 180 176 173 170 172 172 174 174 177 178 180 179 177 178 184 185 184 184 185 184
236 209 219 212 211 232 210 213 236 212 217 179 159 149 143 136 135 139 144 144 150 157 158 163 165 168 168 171 178 183 180 177 181 179 179 178 178 182 186 184 182 181 181 185 183 185 188 188 189
237 219 212 215 220 233 205 217 216 152 102 82 107 115 117 115 110 122 142 150 153 159 160 164 167 169 168 174 182 181 180 178 180 180 178 181 184 184 178 179 183 183 182 185 184 186 191 190 193
254 237 248 271 279 265 228 207 210 115 87 81 83 85 91 100 100 109 124 134 149 156 168 169 170 170 172 175 176 179 179 178 177 176 172 175 178 181 174 177 184 185 182 185 187 191 191 188 196
269 282 262 224 232 241 237 222 235 189 132 105 90 86 79 78 81 87 106 122 131 144 153 164 167 169 169 168 173 179 177 178 175 172 174 176 178 178 178 182 187 185 184 185 186 187 190 190 194
277 285 276 253 243 238 238 239 24 107 97 98 86 76 84 73 77 77 66 76 84 97 107 148 159 158 160 163 165 167 174 173 168 171 176 176 177 180 183 186 186 186 187 187 188 189 190 193 193
294 288 298 273 264 256 257 276 23 59 62 55 54 52 60 63 56 63 67 62 64 77 90 100 128 150 158 158 159 166 162 161 162 170 175 172 178 182 182 184 188 191 192 192 193 194 194 195 197
Height
1495 1496 1499 1502 1504 1504 1498 1486 1477 1478 1479 1481 1483 1484 1486 1489 1493 1504 1504 1503 1503 1504 1506 1509 1511 1513 1515 1517 1519 1521 1522 1524 1525 1527 1528 1529 1531 1532 1534 1535 1536 1537 1539 1540 1541 1542 1542 1543 1544
1495 1498 1501 1502 1503 1504 1493 1481 1478 1478 1481 1483 1485 1487 1489 1492 1494 1498 1500 1502 1503 1504 1506 1508 1511 1513 1515 1517 1519 1521 1522 1524 1525 1527 1528 1530 1531 1533 1534 1536 1537 1538 1539 1540 1541 1542 1543 1544 1545
1495 1498 1501 1498 1497 1495 1486 1476 1476 1478 1482 1485 1488 1490 1491 1493 1495 1497 1499 1501 1503 1504 1506 1508 1510 1513 1515 1517 1519 1521 1522 1524 1526 1527 1529 1530 1532 1533 1535 1536 1537 1539 1540 1541 1542 1543 1544 1545 1546
1497 1499 1499 1498 1493 1484 1478 1476 1476 1479 1483 1486 1488 1490 1492 1494 1495 1496 1499 1501 1502 1504 1506 1508 1510 1512 1514 1517 1519 1521 1522 1524 1526 1527 1529 1530 1532 1533 1535 1536 1538 1539 1540 1541 1542 1544 1545 1545 1547
1497 1497 1497 1495 1489 1480 1475 1476 1478 1480 1483 1486 1488 1489 1491 1494 1494 1496 1498 1501 1502 1503 1505 1507 1509 1512 1514 1516 1518 1520 1522 1524 1525 1527 1529 1531 1532 1534 1535 1537 1538 1539 1541 1542 1543 1544 1545 1546 1547
1497 1494 1496 1493 1484 1476 1474 1476 1478 1481 1483 1485 1487 1489 1492 1493 1494 1496 1498 1500 1502 1503 1504 1507 1509 1511 1513 1515 1517 1519 1521 1523 1525 1527 1529 1531 1532 1534 1535 1537 1538 1539 1541 1542 1543 1544 1545 1547 1548
1495 1492 1491 1485 1481 1476 1473 1475 1478 1480 1482 1484 1486 1488 1490 1492 1493 1495 1498 1499 1501 1502 1504 1506 1508 1510 1512 1514 1516 1518 1520 1523 1525 1527 1528 1530 1532 1534 1535 1537 1538 1539 1541 1542 1543 1544 1546 1547 1548
1492 1490 1486 1482 1480 1476 1472 1475 1478 1480 1482 1483 1485 1486 1488 1490 1492 1494 1496 1498 1500 1502 1503 1505 1507 1509 1511 1513 1515 1517 1519 1522 1524 1526 1528 1530 1532 1533 1535 1536 1538 1539 1540 1542 1543 1544 1546 1547 1548
1491 1492 1487 1480 1477 1474 1473 1476 1479 1480 1481 1482 1484 1485 1486 1488 1490 1493 1495 1497 1499 1501 1502 1504 1506 1508 1510 1512 1514 1516 1518 1521 1523 1525 1527 1529 1531 1533 1534 1536 1537 1539 1540 1541 1543 1544 1545 1547 1549
1488 1488 1480 1474 1472 1472 1473 1476 1478 1480 1481 1482 1483 1484 1486 1487 1488 1490 1493 1495 1497 1499 1501 1503 1505 1506 1509 1511 1512 1515 1517 1519 1522 1524 1526 1528 1530 1532 1533 1535 1537 1538 1539 1541 1542 1544 1545 1546 1548
1482 1480 1475 1474 1473 1473 1474 1476 1477 1478 1479 1479 1480 1482 1484 1485 1487 1489 1491 1493 1495 1497 1499 1501 1503 1505 1507 1509 1511 1513 1515 1518 1520 1523 1525 1527 1529 1531 1532 1534 1535 1537 1538 1540 1541 1543 1544 1546 1548
1477 1474 1474 1473 1473 1474 1475 1475 1476 1476 1476 1477 1478 1479 1481 1483 1484 1486 1488 1491 1493 1495 1497 1499 1501 1503 1505 1507 1509 1512 1514 1516 1519 1521 1523 1525 1527 1529 1531 1532 1534 1536 1537 1539 1540 1542 1543 1545 1547
1473 1471 1472 1472 1473 1473 1474 1474 1474 1473 1474 1474 1475 1476 1478 1479 1482 1484 1486 1488 1490 1492 1494 1497 1498 1500 1503 1505 1507 1509 1512 1514 1517 1519 1521 1523 1525 1527 1529 1531 1532 1534 1536 1538 1539 1541 1543 1545 1546
1468 1469 1469 1469 1470 1471 1472 1471 1472 1468 1470 1471 1472 1473 1475 1476 1479 1481 1483 1485 1487 1489 1491 1494 1496 1498 1500 1502 1504 1507 1510 1512 1514 1517 1519 1521 1524 1526 1528 1529 1531 1533 1535 1536 1538 1540 1542 1544 1545
1468 1468 1466 1465 1466 1467 1470 1469 1465 1464 1466 1467 1468 1470 1471 1473 1475 1477 1479 1481 1483 1486 1488 1490 1493 1495 1497 1499 1502 1505 1507 1510 1512 1514 1517 1519 1521 1523 1525 1528 1529 1531 1533 1535 1537 1539 1540 1542 1544
1466 1467 1466 1459 1460 1463 1471 1466 1458 1459 1461 1462 1464 1466 1467 1469 1471 1473 1475 1477 1480 1482 1484 1487 1489 1491 1494 1496 1499 1502 1504 1507 1509 1512 1514 1517 1519 1521 1523 1525 1527 1529 1531 1533 1535 1537 1538 1540 1542
1464 1464 1460 1456 1454 1457 1463 1460 1454 1454 1456 1457 1460 1461 1463 1465 1467 1469 1471 1473 1476 1478 1480 1483 1485 1488 1490 1493 1496 1499 1501 1504 1506 1509 1511 1514 1516 1518 1521 1522 1524 1527 1529 1530 1533 1535 1537 1538 1540
1459 1457 1453 1452 1450 1453 1457 1455 1452 1451 1452 1453 1455 1457 1459 1461 1463 1465 1467 1469 1472 1474 1477 1479 1482 1484 1487 1490 1493 1495 1498 1501 1504 1506 1509 1511 1514 1516 1518 1520 1522 1524 1526 1528 1530 1532 1534 1536 1537
1451 1451 1450 1446 1445 1449 1451 1450 1448 1447 1448 1449 1451 1452 1454 1456 1459 1461 1463 1465 1467 1470 1473 1475 1477 1480 1483 1486 1489 1491 1494 1497 1500 1503 1506 1508 1511 1513 1515 1517 1519 1521 1523 1525 1527 1530 1531 1533 1535
1450 1450 1448 1445 1443 1446 1447 1445 1443 1442 1443 1445 1446 1448 1450 1452 1454 1456 1458 1460 1463 1466 1468 1471 1474 1476 1479 1482 1485 1488 1491 1494 1497 1500 1502 1505 1507 1510 1511 1514 1516 1518 1520 1522 1524 1526 1528 1530 1532
1446 1448 1448 1447 1444 1444 1447 1445 1439 1436 1438 1440 1442 1443 1446 1448 1450 1452 1454 1456 1458 1461 1464 1466 1470 1473 1475 1478 1482 1485 1488 1491 1493 1496 1499 1501 1504 1506 1508 1510 1513 1515 1517 1519 1521 1523 1525 1526 1529
1445 1442 1443 1445 1450 1452 1447 1453 1436 1433 1433 1435 1437 1439 1441 1444 1446 1448 1450 1452 1454 1457 1460 1463 1466 1469 1472 1475 1478 1480 1483 1485 1488 1492 1495 1498 1500 1502 1505 1507 1509 1511 1513 1515 1518 1520 1522 1523 1525
1441 1440 1442 1443 1448 1451 1446 1451 1437 1430 1431 1431 1433 1435 1437 1440 1442 1444 1446 1448 1450 1453 1456 1459 1462 1465 1468 1471 1474 1477 1479 1482 1485 1488 1491 1493 1496 1498 1501 1503 1505 1507 1509 1512 1514 1516 1518 1519 1521
1440 1441 1442 1442 1448 1454 1443 1447 1438 1431 1428 1428 1429 1431 1434 1437 1439 1441 1443 1445 1447 1450 1453 1456 1459 1461 1465 1467 1470 1473 1475 1479 1481 1484 1487 1489 1492 1494 1497 1499 1501 1503 1505 1508 1510 1512 1514 1516 1518
1442 1447 1451 1450 1451 1445 1431 1436 1435 1426 1423 1424 1427 1429 1432 1435 1437 1439 1441 1442 1444 1447 1449 1452 1455 1458 1461 1464 1466 1469 1472 1475 1477 1480 1483 1485 1487 1490 1492 1494 1497 1499 1501 1503 1505 1508 1510 1511 1513
1442 1442 1446 1446 1441 1435 1430 1433 1430 1424 1423 1424 1426 1429 1432 1434 1436 1438 1439 1441 1443 1444 1447 1449 1451 1454 1457 1460 1463 1466 1468 1471 1474 1476 1478 1481 1483 1485 1488 1490 1492 1494 1496 1499 1501 1503 1505 1507 1509
1441 1439 1435 1439 1435 1437 1429 1425 1425 1422 1424 1426 1427 1429 1432 1434 1436 1438 1439 1440 1441 1443 1444 1446 1448 1451 1454 1456 1459 1462 1465 1467 1470 1472 1474 1477 1479 1481 1484 1486 1488 1490 1492 1494 1496 1498 1500 1503 1505
1441 1439 1440 1441 1439 1435 1425 1425 1431 1427 1427 1428 1429 1431 1432 1434 1436 1437 1438 1439 1440 1441 1443 1444 1446 1448 1451 1453 1456 1459 1461 1464 1466 1469 1471 1473 1475 1477 1479 1481 1483 1485 1487 1489 1491 1493 1495 1498 1500
1443 1444 1441 1438 1434 1434 1432 1436 1427 1428 1428 1429 1430 1432 1433 1435 1436 1437 1438 1438 1439 1440 1441 1442 1444 1446 1448 1450 1453 1456 1458 1460 1462 1465 1467 1469 1471 1473 1475 1476 1478 1480 1482 1484 1486 1488 1491 1493 1495
1443 1445 1446 1449 1442 1434 1433 1442 1432 1430 1430 1431 1432 1433 1434 1435 1436 1437 1437 1438 1438 1438 1439 1440 1442 1443 1445 1448 1450 1453 1455 1457 1458 1461 1463 1465 1466 1468 1470 1472 1474 1475 1477 1479 1481 1483 1485 1487 1490